Regional Weather Roundup
Issued by NWS

Home | Current Version | Previous Version | Graphics & Text | Print | Product List | Glossary On
Versions: 1 2 3 4 5 6 7 8 9 10 11 12 13 14 15 16 17 18 19 20 21 22 23 24 25 26 27 28 29 30 31 32 33 34 35 36 37 38 39 40 41 42 43 44 45 46 47 48 49 50
170
ASUS43 KOAX 031702
RWRNE

WEATHER ROUNDUP FOR NEBRASKA
NATIONAL WEATHER SERVICE OMAHA NE
1100 AM CST SAT DEC 03 2016

NOTES: SATELLITE DATA IS BEING USED TO AUGMENT CLOUD COVER ABOVE
       12000 FEET.
       "FAIR" INDICATES FEW OR NO CLOUDS BELOW 12,000 FEET WITH NO
       SIGNIFICANT WEATHER AND/OR OBSTRUCTIONS TO VISIBILITY.

  * THESE STATIONS DO NOT REPORT WEATHER SUCH AS RAIN...SNOW OR FOG.

NEZ001>004-019>022-054>056-031800-
NEBRASKA PANHANDLE

CITY           SKY/WX    TMP DP  RH WIND       PRES   REMARKS
SCOTTSBLUFF    SUNNY     39  10  30 W15G24    29.99F WCI  31
ALLIANCE       SUNNY     37  11  34 SW21      29.97F WCI  26
CHADRON        SUNNY     37  13  37 W21       29.94F WCI  26
KIMBALL        SUNNY     32  22  68 SW9       30.01S WCI  24
SIDNEY         SUNNY     33  22  63 SW12      30.02S WCI  24
$$

NEZ057>060-069>072-079>082-031800-
SOUTHWEST NEBRASKA

CITY           SKY/WX    TMP DP  RH WIND       PRES   REMARKS
NORTH PLATTE   CLOUDY    39  24  55 S10       30.10F WCI  32
IMPERIAL       SUNNY     38  21  50 S12       30.08F WCI  30
LEXINGTON      CLOUDY    34  27  76 S12       30.16R WCI  25
MCCOOK         CLOUDY    37  25  61 S9        30.15S WCI  30
OGALLALA       SUNNY     39  23  53 S14       30.06F WCI  31
$$

NEZ005>010-023>029-035>040-094-031800-
NORTH CENTRAL NEBRASKA

CITY           SKY/WX    TMP DP  RH WIND       PRES   REMARKS
VALENTINE      SUNNY     41  24  51 SW21G30   30.00F
AINSWORTH      MOSUNNY   39  28  65 S16G22    30.04F WCI  30
BROKEN BOW     CLOUDY    35  27  72 S13       30.12F WCI  26
O`NEILL        CLOUDY    36  32  85 S13       30.14S WCI  27
ORD            CLOUDY    35  26  69 S12       30.16S WCI  27
THEDFORD       PTSUNNY   40  26  56 S14G24    30.05F WCI  32
$$

NEZ041-046>049-061>064-073>077-083>087-031800-
SOUTH CENTRAL NEBRASKA

CITY           SKY/WX    TMP DP  RH WIND       PRES   REMARKS
GRAND ISLAND   LGT SNOW  32  32 100 S8        30.21F FOG     WCI  25
AURORA         LGT SNOW  32  32 100 S5        30.23F VSB 1   WCI  27
HASTINGS       LGT SNOW  33  32  96 S8        30.22F FOG     WCI  26
HEBRON         LGT SNOW  32  32  99 CALM      30.26F VSB 3/4
HOLDREGE       LGT SNOW  33  31  95 S9        30.18F WCI  25
KEARNEY *      CLOUDY    34  28  80 S8        30.19F WCI  27
YORK           LGT SNOW  32  32 100 S9        30.24F WCI  24
$$

NEZ011>018-030>034-042>045-031800-
NORTHEAST NEBRASKA

CITY           SKY/WX    TMP DP  RH WIND       PRES   REMARKS
NORFOLK        CLOUDY    32  28  85 S12       30.21F WCI  23
ALBION         CLOUDY    33  29  86 S9        30.20S WCI  25
BLAIR          CLOUDY    33  30  89 S10       30.28R WCI  25
FREMONT        CLOUDY    32  30  92 S8        30.28S WCI  25
TEKAMAH        CLOUDY    32  29  88 S9        30.29R WCI  24
WAYNE          CLOUDY    33  31  92 S14       30.23S WCI  23
$$

NEZ050>053-065>068-078-088>093-031800-
SOUTHEAST NEBRASKA

CITY           SKY/WX    TMP DP  RH WIND       PRES   REMARKS
LINCOLN        LGT SNOW  32  31  96 S7        30.30S VSB 3/4 WCI  26
OMAHA EPPLEY   CLOUDY    32  27  81 S12       30.31R WCI  23
BEATRICE       LGT SNOW  33  32  97 CALM      30.28F VSB 3/4
FALLS CITY       N/A    N/A N/A N/A MISG      30.30R
NEBRASKA CITY  CLOUDY    32  29  89 S5        30.31R WCI  28
PLATTSMOUTH    CLOUDY    34  29  81 S7        30.30S WCI  28
$$

NEZ044-045-051>053-067-031800-
OMAHA AREA

CITY           SKY/WX    TMP DP  RH WIND       PRES   REMARKS
OMAHA EPPLEY   CLOUDY    32  27  81 S12       30.31R WCI  23
BLAIR          CLOUDY    33  30  89 S10       30.28R WCI  25
FREMONT        CLOUDY    32  30  92 S8        30.28S WCI  25
MILLARD        CLOUDY    33  30  88 SE5       30.30S WCI  28
OFFUTT AFB     CLOUDY    33  33 100 SE7       30.30S WCI  27
PLATTSMOUTH    CLOUDY    34  29  81 S7        30.30S WCI  28
WAHOO          CLOUDY    32  29  90 S12       30.30R WCI  23
$$




USA.gov is the U.S. government's official web portal to all federal, state and local government web resources and services.